Regional Weather Roundup
Issued by NWS Charleston, SC

Current Version | Previous Version | Graphics & Text | Print | Product List | Glossary On
Versions: 1 2 3 4 5 6 7 8 9 10 11 12 13 14 15 16 17 18 19 20 21 22 23 24 25 26 27 28 29 30 31 32 33 34 35 36 37 38 39 40 41 42 43 44 45 46 47 48 49 50
000 ASUS42 KCHS 191712 RWRCHS REGIONAL WEATHER ROUNDUP NATIONAL WEATHER SERVICE CHARLESTON SC 100 PM EDT SAT AUG 19 2017 NOTE: "FAIR" INDICATES FEW OR NO CLOUDS BELOW 12,000 FEET WITH NO SIGNIFICANT WEATHER AND/OR OBSTRUCTIONS TO VISIBILITY. NOT ALL STATIONS ARE QUALITY CONTROLLED. USE DATA WITH CAUTION... ESPECIALLY DEWPOINT OBSERVATIONS. SCZ027-030-031-034>040-042>050-191800- ...SOUTHEAST SOUTH CAROLINA... CITY SKY/WX TMP DP RH WIND PRES REMARKS N CHARLESTON MOSUNNY 92 75 57 W7 29.95F HX 103 WATERFRONT PRK N/A 90 77 65 S6 29.81S HX 103 JOHNS ISLAND FAIR 91 81 70 S8 29.96S HX 110 PINOPOLIS N/A 90 75 62 SW5 29.87F HX 100 MONCKS CORNER FAIR 91 70 49 SW5 29.95S HX 97 SUMMERVILLE FAIR 91 72 52 W8 29.97S HX 98 BEAUFORT MCAS MOSUNNY 93 74 53 W13 29.96F HX 103 BEAUFORT ARPT FAIR 90 73 58 S3 29.96S HX 98 HILTON HEAD IS SUNNY 90 81 74 S12 29.97F HX 108 WALTERBORO MOSUNNY 91 70 49 SW8 29.97S HX 97 ALLENDALE NOT AVBL ...SOUTHERN MIDLANDS AND PEE DEE... CITY SKY/WX TMP DP RH WIND PRES REMARKS GEORGETOWN FAIR 91 77 62 SW5 29.96S HX 105 KINGSTREE FAIR 91 70 49 SW7 29.94S HX 97 ORANGEBURG MOSUNNY 93 66 40 NW9 29.96F HX 96 BARNWELL FAIR 93 68 43 SW9 29.97S HX 97 AIKEN FAIR 88 68 51 W10 30.02R HX 91 MANNING CLOUDY 91 77 62 W21 29.95S HX 105 COLUMBIA MOSUNNY 93 66 40 SW12 29.95S HX 96 SUMTER MOSUNNY 93 66 40 W3G17 29.93S HX 96 FLORENCE PTSUNNY 91 73 55 W7 29.94F HX 99 MYRTLE BEACH MOSUNNY 90 79 70 S14 29.96S HX 105 N MYRTLE BEACH SUNNY 87 78 74 S16 29.94F HX 100 $$ GAZ063-065-086>088-099>101-113>116-118-119-134>141-150-191800- ...SOUTHEAST GEORGIA... CITY SKY/WX TMP DP RH WIND PRES REMARKS SAVANNAH ARPT MOSUNNY 93 71 48 NW6 29.98S HX 100 HUNTER AAF SUNNY 92 72 52 W6 29.95S HX 100 FORT STEWART SUNNY 93 71 47 W8 29.95F HX 99 STATESBORO SUNNY 91 62 37 W6 29.98S HX 92 SYLVANIA MOSUNNY 91 73 54 W6 29.99S HX 99 CLAXTON FAIR 93 68 44 S5 29.98F HX 97 ...CSRA...CENTRAL AND FAR SOUTHEAST GEORGIA... CITY SKY/WX TMP DP RH WIND PRES REMARKS THOMSON PTSUNNY 87 67 50 NE8 30.05S HX 90 AUGUSTA-BUSH SUNNY 93 67 42 W8 29.97S HX 96 AUGUSTA-DANIEL SUNNY 91 63 39 NW12 30.00R HX 92 SWAINSBORO FAIR 90 64 43 NW7G16 29.99F HX 91 VIDALIA SUNNY 91 66 43 W3 29.99F HX 94 EASTMAN FAIR 92 44 19 W8 30.02S HAZLEHURST FAIR 93 49 22 W5 29.99S ALMA MOSUNNY 92 68 45 VRB3 29.99S HX 96 WAYCROSS PTSUNNY 91 69 49 CALM 29.99S HX 95 JESUP FAIR 93 70 46 NW5 29.98F HX 99 BAXLEY FAIR 88 66 48 N8 29.99S HX 90 BRUNSWICK SUNNY 90 70 51 CALM 29.99S HX 95 SAINT SIMONS SUNNY 89 75 63 SW5 29.98F HX 99 $$ SCZ027-028-034-036>038-045-046-048>050-GAZ119-141-191800- ...LAKE AND SUPPLEMENTAL COASTAL OBSERVATIONS... STATION/POSITION TIME TEMP WIND PRES WAVE SWELL AIR SEA DIR/SP/G HT/PER HT/PER/DIR (UTC) (F) (DEG/KT/KT) (MB) (FT/S) (FT/S/D) WINYAH BAY 1545 89 180/ 6 1014.0 LAKE MURRAY 1620 86 210/ 8/ 11 1013.5 ACE BASIN NERRS 1545 90 220/ 1 1015.0 FORT PULASKI 1642 88 86 200/ 5/ 9 1015.3S SAPELO ISLAND 1600 89 CALM 1016.0 $$ ANZ835-935-AMZ111-154-330-350-352-354-370-450-454-472-191800- ...C-MAN AND BUOY OBSERVATIONS... STATION/POSITION TIME TEMP WIND PRES WAVE SWELL AIR SEA DIR/SP/G HT/PER HT/PER/DIR (UTC) (F) (DEG/KT/KT) (MB) (FT/S) (FT/S/D) BUOY 41004 1650 84 85 220/ 12/ 14 1014.8F 3/ 5 2/130/ 8 BUOY 41008 1650 82 86 200/ 8/ 10 1015.3F 2/ 8 2/110/ 8 FOLLY BEACH CMAN 1600 86 210/ 10/ 11 1015.5S CAPERS NEARSHORE 1608 83 85 230/ 12/ 16 1014.7S FRIPP NEARSHORE 1608 84 210/ 8/ 10 1014.9S STATION/POSITION TIME TEMP WIND PRES WAVE SWELL AIR SEA DIR/SP/G HT/PER HT/PER/DIR (UTC) (F) (DEG/KT/KT) (MB) (FT/S) (FT/S/D) 5E ST. MARYS GA 1600 85 N/A 1/ 8 FRYING PAN BUOY 1650 84 84 210/ 12/ 16 1014.6S 4/ 6 2/130/ 8 BUOY 41025 1650 84 84 240/ 14/ 16 1013.8F 4/ 6 2/130/ 8 CAPE LOOKOUT NC 1600 86 230/ 9/ 14 1014.0R BUOY 41002 1650 84 84 210/ 12/ 14 1017.3R 4/ 5 2/220/ 6 BUOY 41010 1650 85 86 170/ 4/ 6 1016.8F 3/ 9 2/120/ 9 ST AUGUSTINE FL 1700 83 83 120/ 9/ 10 1016.4F $$

USA.gov is the U.S. government's official web portal to all federal, state and local government web resources and services.